EHI
13 12 13 13 9 7 9 9 9 7 5 2 1 0 1 1 2 5 12 17 14 7 3 1 0 1 1 1 1 2 3 7 8 5 2 0 0 0 0 0 0 0 0
19 17 15 15 14 12 14 15 15 14 11 7 4 3 3 3 4 5 9 13 12 8 4 2 1 1 1 2 3 3 5 7 9 7 3 1 0 0 0 0 0 0 0
25 24 22 22 23 22 24 28 29 27 24 19 16 13 13 12 9 6 6 7 10 9 6 4 4 2 2 3 5 6 8 10 12 9 4 1 0 0 0 0 0 0 0
24 28 28 27 29 30 33 37 39 39 38 35 33 29 27 25 18 9 5 5 7 10 9 7 7 6 5 7 9 11 14 14 11 7 3 1 0 0 0 0 0 0 0
22 25 26 25 26 30 33 36 39 42 46 46 42 37 33 31 24 13 6 5 7 9 9 9 10 8 6 9 12 16 19 17 11 5 3 1 0 0 0 0 0 0 0
17 18 19 19 21 24 27 30 32 36 44 47 42 35 31 28 23 15 9 7 8 8 7 9 11 11 8 8 10 14 17 19 15 9 5 4 3 2 2 1 0 0 0
10 10 11 12 14 17 21 24 26 28 36 42 41 34 26 22 20 15 10 9 9 8 7 9 14 17 15 8 5 7 12 18 20 16 11 8 7 5 3 1 1 0 0
4 4 5 6 8 11 12 15 20 24 28 34 40 34 22 19 19 16 13 11 9 9 9 9 14 21 20 13 6 3 6 13 20 20 16 12 9 7 4 3 2 1 0
1 1 1 1 3 5 5 6 12 17 21 25 31 31 24 21 22 21 17 12 10 9 8 7 10 14 17 17 12 4 2 7 14 18 17 14 11 7 5 3 2 1 0
0 0 0 0 1 1 1 1 4 9 13 15 20 23 23 24 23 22 19 14 11 9 7 7 6 8 13 18 15 6 1 2 6 13 16 16 13 9 5 2 1 1 1
1 0 0 0 0 0 0 0 1 4 7 9 13 15 18 19 19 18 17 15 14 11 9 9 8 8 10 15 13 6 1 0 1 6 12 16 15 10 5 2 1 2 2
4 2 1 1 1 0 0 0 0 1 3 6 9 11 12 14 15 14 12 13 16 16 15 13 12 11 11 13 10 4 0 0 0 2 7 11 11 9 4 1 1 2 3
6 5 4 3 2 1 0 0 0 0 0 2 5 7 8 10 13 14 12 13 15 17 16 15 15 13 13 13 9 3 0 0 0 0 2 4 5 4 2 1 1 2 2
8 8 7 5 3 2 1 0 0 0 0 0 1 3 5 8 10 12 13 15 16 15 13 14 15 14 16 15 8 2 0 0 0 0 0 1 1 1 0 0 0 1 1
12 10 8 5 3 3 2 1 0 0 0 0 0 1 3 6 7 9 11 15 18 16 14 14 14 14 16 14 5 1 1 1 0 0 0 0 0 0 0 0 0 0 0
18 14 9 5 3 3 2 1 0 0 0 0 1 1 3 5 7 8 9 12 17 20 20 17 13 12 12 9 5 3 3 1 0 0 0 0 0 0 0 0 0 0 0
21 16 10 7 4 3 2 1 0 0 0 0 0 1 2 4 7 8 8 10 16 22 21 15 10 8 8 6 6 6 3 1 0 0 0 0 0 0 0 0 0 0 0
22 16 11 8 5 3 2 1 0 0 0 0 0 0 1 2 6 8 8 10 13 16 15 9 4 5 6 6 6 5 2 0 0 0 0 0 0 0 0 0 0 0 0
19 14 10 8 4 3 1 0 0 0 0 0 0 0 0 1 3 6 8 9 9 10 10 5 2 1 2 2 2 1 0 0 0 0 0 0 0 0 0 0 0 0 0
11 8 6 4 3 2 1 0 0 0 0 0 0 0 0 0 2 4 6 7 7 7 6 4 1 0 0 0 0 0 0 0 0 0 0 0 0 0 0 0 0 0 0
5 4 3 2 1 1 0 0 0 0 0 0 0 0 0 0 1 2 3 5 5 4 3 2 0 0 0 0 0 0 0 0 0 0 0 0 0 0 0 0 0 0 0
2 3 2 1 0 0 0 0 0 0 0 0 0 0 0 0 0 0 1 1 2 1 1 0 0 0 0 0 0 0 0 0 0 0 0 0 0 0 0 0 0 0 0
1 1 2 1 0 0 0 0 0 0 0 0 0 0 0 0 0 0 0 0 0 0 0 0 0 0 0 0 0 0 0 0 0 0 0 0 0 0 0 0 0 0 0
0 0 1 1 0 0 0 0 0 0 0 0 0 0 0 0 0 0 0 0 0 0 0 0 0 0 0 0 0 0 0 0 0 0 0 0 0 0 0 0 0 0 0
0 0 0 0 0 0 0 0 0 0 0 0 0 0 0 0 0 0 0 0 0 0 0 0 0 0 0 0 0 0 0 0 0 0 0 0 0 0 0 0 0 0 0
0 0 0 0 0 0 0 0 0 0 0 0 0 0 0 0 0 0 0 0 0 0 0 0 0 0 0 0 0 0 0 0 0 0 0 0 0 0 0 0 0 0 0
Wind_Speed
8 8 6 6 8 8 8 8 9 9 10 11 11 12 12 11 11 9 6 9 12 14 16 16 16 16 15 15 15 16 17 18 18 19 19 20 19 18 18 17 17 17 17
8 8 8 8 9 8 8 8 10 9 9 9 11 11 12 12 10 10 9 8 12 14 15 16 16 15 15 15 15 15 17 17 18 18 18 19 19 18 18 18 18 18 17
9 9 9 9 9 8 9 9 10 9 9 9 11 11 10 11 11 10 10 9 9 13 17 17 16 15 15 15 15 15 16 16 17 18 19 19 19 18 18 18 18 17 18
10 9 9 10 9 8 8 8 8 8 9 8 9 9 9 8 10 11 11 10 9 9 12 17 16 15 15 16 16 16 16 16 17 18 19 19 19 18 18 18 17 17 17
10 9 9 9 10 8 8 9 8 8 9 9 9 8 9 9 9 10 11 12 11 10 11 10 15 15 15 15 16 16 16 16 17 18 18 19 19 19 18 18 18 17 17
8 8 8 9 9 8 8 8 9 9 9 9 9 9 9 9 8 9 11 11 11 13 13 13 10 12 17 16 16 16 17 17 17 17 18 18 19 19 18 18 18 18 18
7 7 8 8 8 8 9 10 9 10 9 7 8 8 9 12 12 10 10 11 13 13 12 12 11 10 8 16 17 16 17 18 17 17 18 18 19 18 19 18 18 18 18
7 7 7 8 8 8 10 10 10 9 9 7 6 6 7 8 10 11 11 12 13 12 12 14 12 11 10 8 10 17 17 17 18 18 18 18 18 18 18 18 18 17 18
6 7 8 8 8 9 8 8 9 11 9 8 8 8 7 7 5 6 11 11 11 10 11 10 13 12 12 10 9 12 16 15 16 18 17 17 18 17 17 18 18 18 18
6 6 7 8 8 8 8 10 9 9 10 10 8 9 10 9 7 6 7 9 11 11 11 9 11 10 11 9 9 9 11 13 13 15 16 16 16 16 17 17 18 18 18
6 6 7 7 7 8 8 9 9 10 9 10 9 9 10 10 12 10 9 8 8 9 10 10 9 8 9 9 8 10 11 11 11 12 13 14 15 15 16 17 18 18 18
5 6 7 7 8 8 8 9 9 11 10 11 10 10 9 9 10 11 12 11 9 8 8 7 7 7 7 7 9 7 9 9 8 8 9 10 11 12 13 15 16 16 16
6 5 6 7 8 8 9 9 9 10 10 11 11 10 10 11 10 10 11 11 10 7 6 6 5 5 6 5 5 9 8 8 8 7 6 6 6 6 7 8 10 12 12
7 6 7 8 9 9 10 9 9 10 9 11 12 12 10 10 10 10 11 10 9 8 7 6 4 4 4 3 4 8 8 9 9 8 7 7 7 6 6 6 6 6 6
7 7 8 9 9 9 10 10 9 10 10 10 11 11 10 9 9 10 10 9 9 8 7 5 4 3 3 3 5 6 7 9 9 9 8 7 7 7 7 7 7 6 6
8 9 9 9 9 9 10 10 10 9 10 10 9 10 10 9 8 9 9 9 9 8 6 3 2 3 4 4 6 6 7 11 10 9 8 8 8 8 8 8 7 7 6
9 9 9 9 9 9 9 9 10 10 11 11 10 10 10 10 8 8 8 8 7 7 5 3 2 3 5 6 6 6 7 6 7 10 10 9 9 9 9 9 8 8 7
10 10 9 9 9 9 9 9 10 10 10 10 9 9 9 7 8 7 6 6 5 5 6 6 4 4 5 6 7 7 7 7 8 11 12 11 11 10 10 9 8 8 7
10 10 9 10 9 9 8 8 9 9 9 8 8 8 8 7 7 5 5 4 4 4 5 7 5 4 4 5 7 8 8 6 8 10 12 12 12 11 10 9 9 8 6
10 10 9 9 9 8 8 7 7 7 6 6 6 6 5 4 4 4 4 4 5 6 7 7 7 6 5 5 6 7 7 5 5 7 8 9 11 11 10 9 9 7 6
10 9 9 9 9 7 6 5 5 5 4 3 3 3 3 2 1 1 3 5 6 7 7 7 8 7 7 6 6 5 7 6 5 4 6 7 7 7 8 9 9 8 6
10 9 9 9 9 6 1 2 5 3 2 2 2 3 3 4 7 8 8 7 7 9 9 8 8 9 8 7 6 6 6 6 5 3 4 5 5 5 5 7 8 8 7
10 9 8 9 8 5 5 4 5 4 2 0 1 2 3 5 5 8 11 13 13 11 9 8 10 10 9 7 7 7 5 5 5 4 3 5 5 5 6 8 8 6 6
9 8 8 8 8 6 7 5 5 4 2 2 2 3 4 5 6 7 11 11 11 10 9 9 10 9 9 7 6 6 8 8 6 4 2 4 5 5 6 7 8 5 4
10 9 8 8 8 6 8 7 6 4 3 3 3 4 6 7 8 9 11 13 13 11 14 16 15 13 12 9 4 5 6 6 7 5 2 3 4 4 5 5 7 8 5
10 9 8 8 8 8 8 8 8 5 5 5 5 6 7 7 8 7 9 11 13 12 11 12 11 10 9 8 5 3 4 5 6 6 3 1 3 3 4 4 3 3 4
Wind_Direction
257 262 262 262 266 266 257 251 258 262 260 256 254 251 253 254 253 251 247 204 214 228 238 242 242 241 238 233 229 224 220 219 217 216 217 219 220 220 219 217 215 213 212
263 266 263 259 260 262 265 266 265 263 259 257 255 255 257 258 255 252 254 233 217 225 234 241 242 242 238 235 230 224 220 218 216 215 216 218 219 219 219 218 217 214 213
261 261 266 265 262 264 263 260 262 262 259 257 255 254 252 253 254 256 258 259 245 224 225 233 237 238 238 236 232 225 219 217 215 214 215 217 217 217 218 218 218 215 213
264 264 266 268 269 267 263 259 258 258 258 258 257 256 252 249 253 254 254 249 249 251 229 220 225 231 235 236 235 228 220 217 215 214 214 214 215 215 216 217 217 216 213
273 267 269 271 273 268 263 262 259 258 262 262 260 258 256 250 250 253 254 255 251 248 254 230 213 222 230 235 236 231 224 217 215 214 214 214 215 215 215 216 216 215 214
286 285 277 278 279 273 268 265 266 259 257 259 266 264 257 254 248 248 253 255 251 249 246 249 236 222 219 226 231 231 228 222 216 215 215 215 215 214 213 214 215 215 214
306 298 293 295 285 279 278 276 271 265 257 253 258 259 252 247 244 244 246 250 249 247 248 247 246 247 224 214 221 227 229 226 219 216 216 214 215 214 213 213 214 214 213
310 300 305 297 295 292 282 279 273 270 267 248 244 257 259 245 233 236 238 240 243 241 241 241 239 237 244 240 219 215 224 228 223 218 215 214 213 212 212 213 212 213 212
307 308 304 298 300 288 286 287 280 271 269 263 245 245 254 257 261 231 231 237 237 236 237 240 240 235 232 235 240 214 215 220 222 221 216 214 212 210 210 212 211 211 211
299 302 299 298 295 293 293 283 281 280 272 266 255 243 248 266 266 261 236 231 230 234 238 241 243 235 232 234 230 233 207 211 217 221 218 213 209 207 208 210 212 211 211
288 292 296 296 294 289 293 293 291 280 274 269 267 259 250 248 248 255 258 245 232 230 228 229 238 241 234 233 231 219 192 198 207 214 215 212 209 207 208 210 213 213 213
284 284 291 291 287 289 290 285 283 276 272 273 270 263 256 251 244 243 249 248 245 238 230 228 232 233 232 231 226 185 171 181 189 196 202 205 205 205 208 210 212 214 213
290 294 293 289 288 289 286 282 277 277 274 270 265 261 258 256 257 254 253 253 250 242 230 226 228 231 229 221 199 154 154 156 153 154 162 173 176 178 189 199 203 207 209
292 300 286 282 284 285 284 282 279 274 270 268 266 265 263 259 257 254 251 250 247 238 227 222 217 223 222 199 149 152 140 136 132 128 126 126 125 132 145 161 166 172 179
275 277 279 280 283 284 284 284 280 281 278 271 268 261 256 257 255 256 253 246 242 239 228 209 201 204 190 160 141 143 135 124 123 120 120 120 120 123 126 126 124 126 125
267 269 270 276 280 281 281 282 282 282 281 276 271 266 261 257 253 250 250 246 239 239 236 208 178 173 161 136 123 129 116 111 106 111 112 114 116 118 119 117 114 111 112
259 260 264 270 274 279 282 284 285 286 282 281 277 267 260 259 257 252 246 243 233 222 211 180 144 132 133 129 125 120 120 114 103 97 102 106 108 109 110 109 106 105 105
257 257 260 264 269 274 281 285 287 289 286 283 281 275 266 257 250 250 245 234 223 207 179 156 140 123 116 122 121 116 113 109 106 98 98 99 101 102 104 105 105 102 100
263 259 257 259 264 270 276 281 287 289 288 289 289 281 267 254 246 235 230 212 186 166 153 143 132 116 107 116 114 108 104 107 113 115 107 101 99 99 99 100 101 101 100
271 264 259 258 259 263 269 276 281 288 292 299 304 297 285 260 239 218 202 179 153 141 136 134 129 127 120 126 123 123 118 113 114 116 103 108 108 103 101 99 96 94 93
276 268 260 257 254 254 260 272 277 281 287 302 325 338 354 20 31 165 159 150 143 135 133 131 131 129 125 132 128 127 119 120 112 122 133 133 134 127 121 113 95 79 73
287 277 263 256 251 248 187 265 279 273 284 312 360 22 49 70 81 79 85 100 124 136 135 134 132 129 128 127 126 133 135 139 130 123 132 123 125 119 108 90 79 75 65
295 281 273 262 251 230 172 206 253 255 224 44 52 63 69 77 90 103 94 92 88 89 107 123 123 124 125 125 127 124 121 119 106 120 137 125 126 117 109 95 94 82 68
293 283 269 259 253 224 182 201 229 222 174 118 105 111 100 96 90 104 107 100 95 88 92 102 105 106 108 108 107 111 115 116 116 110 140 130 129 125 120 119 125 111 92
289 281 269 255 243 223 188 196 220 197 161 136 123 116 114 108 90 95 105 104 99 89 76 80 85 88 81 74 86 136 147 144 130 117 109 122 129 136 139 136 144 163 160
285 283 270 255 237 221 190 190 213 205 169 152 131 116 106 109 106 105 114 115 112 111 112 107 103 107 105 96 79 114 144 141 134 118 92 116 128 154 146 126 107 141 165